2022/12/18 00:00:00, 7.1,-2.5
2022/12/18 00:10:00, 7.3,-2.9
2022/12/18 00:20:00, 7.8,-3.1
2022/12/18 00:30:00, 8.5,-3.0
2022/12/18 00:40:00, 8.9,-3.3
2022/12/18 00:50:00, 9.8,-3.1
2022/12/18 01:00:00,10.2,-3.0
2022/12/18 01:10:00,11.4,-2.9
2022/12/18 01:20:00,13.4,-2.9
2022/12/18 01:30:00,14.7,-2.9
2022/12/18 01:40:00,16.6,-3.1
2022/12/18 01:50:00,18.8,-3.3
2022/12/18 02:00:00,19.7,-3.5
2022/12/18 02:10:00,19.9,-3.7
2022/12/18 02:20:00,20.1,-3.6
2022/12/18 02:30:00,20.8,-3.5
2022/12/18 02:40:00,22.2,-4.2
2022/12/18 02:50:00,22.2,-3.5
2022/12/18 03:00:00,21.9,-3.9
2022/12/18 03:10:00,22.2,-3.9
2022/12/18 03:20:00,23.2,-4.1
2022/12/18 03:30:00,24.7,-4.7
2022/12/18 03:40:00,26.6,-4.5
2022/12/18 03:50:00,28.0,-4.8
2022/12/18 04:00:00,28.7,-4.2
2022/12/18 04:10:00,29.3,-4.9
2022/12/18 04:20:00,29.7,-4.8
2022/12/18 04:30:00,30.7,-5.2
2022/12/18 04:40:00,31.9,-5.2
2022/12/18 04:50:00,33.4,-5.2
2022/12/18 05:00:00,34.4,-5.4
2022/12/18 05:10:00,34.9,-5.7
2022/12/18 05:20:00,35.4,-5.5
2022/12/18 05:30:00,36.1,-5.2
2022/12/18 05:40:00,36.8,-5.2
2022/12/18 05:50:00,37.4,-5.4
2022/12/18 06:00:00,37.8,-5.6
2022/12/18 06:10:00,38.3,-5.5
2022/12/18 06:20:00,38.3,-5.8
2022/12/18 06:30:00,38.1,-5.6
2022/12/18 06:40:00,37.9,-5.7
2022/12/18 06:50:00,38.0,-5.8
2022/12/18 07:00:00,37.9,-6.0
2022/12/18 07:10:00,37.9,-6.0
2022/12/18 07:20:00,38.1,-5.8
2022/12/18 07:30:00,38.2,-6.0
2022/12/18 07:40:00,38.2,-5.7
2022/12/18 07:50:00,38.4,-5.8
2022/12/18 08:00:00,38.1,-5.8
2022/12/18 08:10:00,37.7,-6.0
2022/12/18 08:20:00,37.7,-5.9
2022/12/18 08:30:00,37.8,-5.9
2022/12/18 08:40:00,37.9,-5.7
2022/12/18 08:50:00,37.6,-6.3
2022/12/18 09:00:00,37.3,-5.8
2022/12/18 09:10:00,37.2,-5.6
2022/12/18 09:20:00,36.9,-5.2
2022/12/18 09:30:00,36.5,-4.9
2022/12/18 09:40:00,36.3,-5.9
2022/12/18 09:50:00,36.8,-5.9
2022/12/18 10:00:00,36.8,-5.1
2022/12/18 10:10:00,36.7,-5.6
2022/12/18 10:20:00,36.8,-4.8
2022/12/18 10:30:00,36.8,-4.1
2022/12/18 10:40:00,36.8,-4.3
2022/12/18 10:50:00,36.8,-5.2
2022/12/18 11:00:00,37.8,-6.0
2022/12/18 11:10:00,39.4,-6.0
2022/12/18 11:20:00,41.4,-5.6
2022/12/18 11:30:00,42.8,-6.2
2022/12/18 11:40:00,43.3,-5.5
2022/12/18 11:50:00,43.4,-4.2
2022/12/18 12:00:00,43.4,-2.8
2022/12/18 12:10:00,43.0,-3.9
2022/12/18 12:20:00,43.1,-4.8
2022/12/18 12:30:00,44.7,-4.8
2022/12/18 12:40:00,46.1,-5.0
2022/12/18 12:50:00,48.9,-5.4
2022/12/18 13:00:00,50.6,-4.5
2022/12/18 13:10:00,51.2,-4.1
2022/12/18 13:20:00,50.9,-4.3
2022/12/18 13:30:00,50.8,-3.6
2022/12/18 13:40:00,50.8,-3.5
2022/12/18 13:50:00,50.7,-4.7
2022/12/18 14:00:00,51.6,-5.6
2022/12/18 14:10:00,52.4,-5.5
2022/12/18 14:20:00,52.9,-5.6
2022/12/18 14:30:00,53.5,-4.7
2022/12/18 14:40:00,54.0,-4.9
2022/12/18 14:50:00,53.7,-4.5
2022/12/18 15:00:00,53.0,-4.2
2022/12/18 15:10:00,52.8,-3.9
2022/12/18 15:20:00,52.4,-4.1
2022/12/18 15:30:00,52.3,-4.7
2022/12/18 15:40:00,52.2,-4.8
2022/12/18 15:50:00,51.8,-4.9
2022/12/18 16:00:00,51.5,-5.3
2022/12/18 16:10:00,51.5,-5.0
2022/12/18 16:20:00,51.2,-4.9
2022/12/18 16:30:00,51.4,-5.2
2022/12/18 16:40:00,51.6,-5.5
2022/12/18 16:50:00,51.7,-5.4
2022/12/18 17:00:00,52.3,-5.7
2022/12/18 17:10:00,52.7,-5.7
2022/12/18 17:20:00,52.5,-5.7
2022/12/18 17:30:00,52.2,-5.7
2022/12/18 17:40:00,52.0,-6.0
2022/12/18 17:50:00,51.8,-6.0
2022/12/18 18:00:00,51.5,-5.8
2022/12/18 18:10:00,51.8,-5.8
2022/12/18 18:20:00,51.6,-6.0
2022/12/18 18:30:00,51.4,-6.5
2022/12/18 18:40:00,51.2,-6.1
2022/12/18 18:50:00,51.2,-5.7
2022/12/18 19:00:00,51.2,-6.0
2022/12/18 19:10:00,51.2,-5.8
2022/12/18 19:20:00,51.0,-6.2
2022/12/18 19:30:00,51.1,-5.8
2022/12/18 19:40:00,51.4,-6.0
2022/12/18 19:50:00,51.4,-5.7
2022/12/18 20:00:00,51.9,-5.7
2022/12/18 20:10:00,52.0,-5.6
2022/12/18 20:20:00,52.6,-5.8
2022/12/18 20:30:00,52.8,-6.1
2022/12/18 20:40:00,53.1,-5.6
2022/12/18 20:50:00,53.9,-5.6
2022/12/18 21:00:00,54.6,-5.4
2022/12/18 21:10:00,54.9,-5.6
2022/12/18 21:20:00,54.6,-5.6
2022/12/18 21:30:00,54.2,-5.8
2022/12/18 21:40:00,53.7,-6.0
2022/12/18 21:50:00,53.4,-6.0
2022/12/18 22:00:00,53.1,-6.5
2022/12/18 22:10:00,53.0,-6.0
2022/12/18 22:20:00,52.7,-6.7
2022/12/18 22:30:00,52.6,-6.8
2022/12/18 22:40:00,52.2,-6.7
2022/12/18 22:50:00,51.9,-6.2
2022/12/18 23:00:00,51.7,-5.9
2022/12/18 23:10:00,51.9,-5.6
2022/12/18 23:20:00,52.1,-6.0
2022/12/18 23:30:00,52.7,-5.8
2022/12/18 23:40:00,53.3,-5.6
2022/12/18 23:50:00,53.5,-5.7
